Regional Weather Roundup
Issued by NWS Spokane, WA

Home | Current Version | Previous Version | Text Only | Print | Product List | Glossary On
Versions: 1 2 3 4 5 6 7 8 9 10 11 12 13 14 15 16 17 18 19 20 21 22 23 24 25 26 27 28 29 30 31 32 33 34 35 36 37 38 39 40 41 42 43 44 45 46 47 48 49 50
000
NZUS01 KOTX 021200
RWROTX
EASTERN WASHINGTON/NORTHERN IDAHO ROUNDUP
NATIONAL WEATHER SERVICE, SPOKANE WA
500 AM PDT TUE SEP 02 2014

Note: "fair" indicated few or no clouds below 12,000 feet with no
significant weather and/or obstructions to visibility.

...NORTHEAST WASHINGTON AND NORTHERN IDAHO PANHANDLE...

CITY           SKY/WX    TMP DP  RH WIND       PRES   REMARKS
SPOKANE INTL   PTCLDY    51  39  63 S9        29.88F
SPOKANE DOWNTO PTCLDY    54  43  66 NE3       29.89S
COEUR D ALENE  MOCLDY    54  45  71 S9        29.89F
DEER PARK      PTCLDY    43  36  76 CALM      29.88F

...SOUTHEAST WASHINGTON AND SOUTHERN IDAHO PANHANDLE...

CITY           SKY/WX    TMP DP  RH WIND       PRES   REMARKS
WALLA WALLA    CLEAR     62  46  55 S6        29.90F
PULLMAN/MOSCOW MOCLDY    51  40  65 E3        29.94S
LOWELL           N/A     49  46  90 N3        30.00S

...COLUMBIA BASIN...

CITY           SKY/WX    TMP DP  RH WIND       PRES   REMARKS
EPHRATA        CLEAR     59  42  53 SW6       29.84F
MOSES LAKE     PTCLDY    53  45  74 SE3       29.86S
TRI CITIES     CLEAR     51  49  92 N3        29.87F
HERMISTON      CLEAR     51  46  83 SE5       29.88F
PENDLETON      CLEAR     55  43  63 SE9       29.90F

...EAST SLOPES CASCADES...

CITY           SKY/WX    TMP DP  RH WIND       PRES   REMARKS
THE DALLES     CLEAR     58  51  78 VRB5      29.89F
YAKIMA         CLEAR     48  44  86 W8        29.89F
ELLENSBURG     CLEAR     59  49  69 NW10      29.89F
STAMPEDE PASS  FOG       48  46  93 VRB5      29.98S VSB 3/4
WENATCHEE      CLEAR     59  44  57 NW6       29.86F
OMAK           CLOUDY    52  40  63 CALM      29.84F

...SOUTHERN BRITISH COLUMBIA...

CITY           SKY/WX    TMP DP  RH WIND       PRES   REMARKS

...WESTERN MONTANA...

CITY           SKY/WX    TMP DP  RH WIND       PRES   REMARKS
MISSOULA       MOCLDY    42  39  89 CALM      29.99S

...NEIGHBORING CITIES...

CITY           SKY/WX    TMP DP  RH WIND       PRES   REMARKS
SEATTLE        MOCLDY    62  54  74 NE3       29.96F



USA.gov is the U.S. government's official web portal to all federal, state and local government web resources and services.